KUIPER-00193

导读

KUIPER-00193(NORAD编号68576)是亚马逊柯伊伯(Project Kuiper)低轨宽带互联网星座中的一颗卫星,该星座计划在近地轨道部署超过3200颗卫星,为全球提供高速宽带服务。该卫星由SpaceX猎鹰9号火箭于2025年发射,进入约465千米的低轨道后,将自主爬升最终进入650千米左右的工作轨道。它采用多用户波束相控阵天线技术,支持灵活容量分配,可实现星上数据再生与交换,依靠亚马逊地面网络完成组网运营,是柯伊伯星座商用部署阶段的重要组成卫星,助力星座在2026年为北美及欧洲部分国家提供初始服务。

基本信息
目录编号:
68576
目录名称:
KUIPER-00193
国际标识:
2026-072D
轨道中心:
EARTH
卫星名称:
KUIPER-00193
卫星全名:
KUIPER-00193
卫星状态:
在轨 (已飞行164 天)
发射日期:
2026-04-04 UTC
国别 :
美国 (US)
星等 :
--
该卫星已列入 空间交会检测服务 Space Conjunction Data Service (SCDS) ,当前飞行风险评估等级: 无高风险
轨道信息
数据来源 国际轨道数据 AOE轨道数据
星历时间 2026-09-15T17:22:23+0800
14小时前
查看轨道信息
2026-09-15T23:00:00+0800
8小时前
查看轨道信息
半长轴 7007.66km 7007.664km
偏心率 0.0001056 0.0001314
轨道倾角 51.905° 51.904°
近地点辐角 101.320° 85.629°
升交点赤经 144.315° 143.279°
平近点角 258.788° 84.377°
近地点 628.782km 628.606km
远地点 630.264km 630.448km
周期 97.301分钟 97.302分钟
每日圈数 14.799372 14.79936
详细信息
使用方式:
暂无
2D轨道图
3D轨道图
轨道高度分析图
轨道倾角分析图
轨道综合分析图
查看轨道综合分析图
与全量物体交会距离演化趋势 订阅飞行安全评估服务
与全量物体交会风险概率演化趋势 订阅飞行安全评估服务